SCP
0 0 0 0 0 0 0 0 0 0 0 0 0 0 0 0 0 0 0 0 0 0 0 0 0 0 0 0 0 0 0 0 0 0 0 0 0 0
0 0 0 0 0 0 0 0 0 0 0 0 0 0 0 0 0 0 0 0 0 0 0 0 0 0 0 0 0 0 0 0 0 0 0 0 0 0
0 0 0 0 0 0 0 0 0 0 0 0 0 0 0 0 0 0 0 0 0 0 0 0 0 0 0 0 0 0 0 0 0 0 0 0 0 0
0 0 0 0 0 0 0 0 0 0 0 0 0 0 0 0 0 0 0 0 0 0 0 0 0 0 0 0 0 0 0 0 0 0 0 0 0 0
0 0 0 0 0 0 0 0 0 0 0 0 0 0 0 0 0 0 0 0 0 0 0 0 0 0 0 0 0 0 0 0 0 0 0 0 0 0
0 0 0 0 0 0 0 0 0 0 0 0 0 0 0 0 0 0 0 0 0 0 0 0 0 0 0 0 0 0 0 0 0 0 0 0 0 0
0 0 0 0 0 0 0 0 0 0 0 0 0 0 0 0 0 0 0 0 0 0 0 0 0 0 0 0 0 0 0 0 0 0 0 0 0 0
0 0 0 0 0 0 0 0 0 0 0 0 0 0 0 0 0 0 0 0 0 0 0 0 0 0 0 0 0 0 0 0 0 0 0 0 0 0
0 0 0 0 0 0 0 0 0 0 0 0 0 0 0 0 0 0 0 0 0 0 0 0 0 0 0 0 0 0 0 0 0 0 0 0 0 0
0 0 0 0 0 0 0 0 0 0 0 0 0 0 0 0 0 0 0 0 0 0 0 0 0 0 0 0 0 0 0 0 0 0 0 0 0 0
0 0 0 0 0 0 0 0 0 0 0 0 0 0 0 0 0 0 0 0 0 0 0 0 0 0 0 0 0 0 0 0 0 0 0 0 0 0
0 0 0 0 0 0 0 0 0 0 0 0 0 0 0 0 0 0 0 0 0 0 0 0 0 0 0 0 0 0 0 0 0 0 0 0 0 0
0 0 0 0 0 0 0 0 0 0 0 0 0 0 0 0 0 0 0 0 0 0 0 0 0 0 0 0 0 0 0 0 0 0 0 0 0 0
0 0 0 0 0 0 0 0 0 0 0 0 0 0 0 0 0 0 0 0 0 0 0 0 0 0 0 0 0 0 0 0 0 0 0 0 0 0
0 0 0 0 0 0 0 0 0 0 0 0 0 0 0 0 0 0 0 0 0 0 0 0 0 0 0 0 0 0 0 0 0 0 0 0 0 0
0 0 0 0 0 0 0 0 0 0 0 0 0 0 0 0 0 0 0 0 0 0 0 0 0 0 0 0 0 0 0 0 0 0 0 0 0 0
0 0 0 0 0 0 0 0 0 0 0 0 0 0 0 0 0 0 0 0 0 0 0 0 0 0 0 0 0 0 0 0 0 0 0 0 0 0
0 0 0 0 0 0 0 0 0 0 0 0 0 0 0 0 0 0 0 0 0 0 0 0 0 0 0 0 0 0 0 0 0 0 0 0 0 0
0 0 0 0 0 0 0 0 0 0 0 0 0 0 0 0 0 0 0 0 0 0 0 0 0 0 0 0 0 0 0 0 0 0 0 0 0 0
0 0 0 0 0 0 0 0 0 0 0 0 0 0 0 0 0 0 0 0 0 0 0 0 0 0 0 0 0 0 0 0 0 0 0 0 0 0
0 0 0 0 0 0 0 0 0 0 0 0 0 0 0 0 0 0 0 0 0 0 0 0 0 0 0 0 0 0 0 0 0 0 0 0 0 0
0 0 0 0 0 0 0 0 0 0 0 0 0 0 0 0 0 0 0 0 0 0 0 0 0 0 0 0 0 0 0 0 0 0 0 0 0 0
0 0 0 0 0 0 0 0 0 0 0 0 0 0 0 0 0 0 0 0 0 0 0 0 0 0 0 0 0 0 0 0 0 0 0 0 0 0
Wind_Speed
5 5 4 3 3 3 3 2 1 2 3 2 3 3 2 3 3 1 3 9 9 7 5 4 3 2 3 4 5 6 7 7 8 9 10 11 12 13
5 6 5 4 3 3 3 3 3 2 3 3 3 4 3 1 3 1 3 8 11 9 7 6 4 3 3 4 4 5 6 7 8 9 10 11 12 13
5 6 6 5 4 4 3 3 4 4 3 3 3 3 3 1 1 2 4 4 5 11 10 8 7 5 4 4 3 4 5 6 7 9 10 11 12 13
5 5 5 5 5 5 4 4 3 3 3 2 1 2 2 2 2 3 4 1 2 10 12 10 9 7 6 5 4 3 4 5 6 8 9 11 12 13
5 5 5 6 6 4 4 4 3 3 2 1 1 0 0 1 1 3 3 1 3 5 10 11 11 9 8 6 5 3 3 4 5 6 8 9 11 12
5 6 6 7 6 5 4 5 4 4 3 2 1 1 1 2 1 2 2 2 2 1 3 5 9 11 9 8 6 5 4 4 5 5 6 8 9 11
5 5 6 6 6 4 5 4 5 4 4 3 3 3 3 3 3 3 3 3 3 1 2 1 2 3 5 7 8 7 6 5 5 5 6 7 9 10
4 4 5 4 3 1 1 2 3 3 4 3 3 3 3 3 3 4 3 3 3 2 2 3 1 2 3 4 7 9 8 6 5 6 6 7 9 10
3 3 4 6 5 4 2 3 3 4 3 1 3 3 3 3 4 4 4 4 4 4 2 3 2 1 2 3 10 10 9 8 7 7 7 8 9 10
3 4 5 6 7 6 5 4 2 1 3 3 2 3 3 2 3 4 5 5 4 3 1 2 2 2 1 2 9 11 10 9 8 8 7 8 10 12
5 6 6 6 6 8 5 5 5 4 2 3 5 6 7 7 3 2 4 3 4 3 1 1 2 2 1 2 5 11 11 10 9 9 8 8 10 11
5 6 8 6 5 7 5 4 4 5 6 6 5 7 6 6 6 5 3 3 3 3 2 2 2 3 2 2 1 3 5 8 10 10 9 9 8 5
2 3 3 3 3 4 4 2 3 5 6 6 5 3 2 1 2 3 4 2 2 3 3 2 2 3 2 3 3 2 2 3 3 4 8 9 7 3
3 3 2 0 2 4 4 5 8 8 4 3 3 2 2 2 2 2 3 3 4 5 4 2 2 2 2 3 3 3 2 1 2 2 3 5 6 6
2 2 2 4 5 5 6 8 7 4 3 3 3 3 2 2 2 2 3 3 4 5 4 3 3 2 2 2 3 3 2 2 1 1 1 2 2 2
2 3 5 7 7 7 5 4 4 2 2 3 3 3 3 3 2 2 2 3 3 3 4 4 4 3 3 3 3 3 2 2 2 1 1 1 2 2
6 4 2 1 1 1 1 1 1 1 2 3 3 3 3 3 3 3 3 3 3 3 3 3 3 3 4 3 2 2 2 2 2 2 2 1 2 2
5 3 2 2 2 2 2 2 2 3 3 3 3 3 3 3 3 3 3 3 3 3 3 3 3 3 3 1 1 1 2 2 3 3 2 1 2 2
4 3 1 2 2 3 3 3 3 3 2 3 3 3 3 3 4 4 3 3 3 3 3 2 2 2 3 3 3 4 2 2 2 2 2 2 2 2
2 1 2 2 2 2 3 3 3 3 3 3 3 3 3 3 4 4 3 3 3 4 4 3 1 1 2 3 3 4 8 4 2 2 3 2 1 1
2 2 2 2 2 3 2 2 2 2 2 3 3 3 3 4 4 4 4 5 4 4 3 3 3 4 4 3 3 3 4 9 7 3 2 3 2 2
2 3 2 1 2 2 3 3 3 3 3 3 3 4 4 4 4 5 5 4 4 4 4 4 4 3 2 3 3 3 2 3 6 8 8 6 3 2
3 3 3 2 3 3 4 4 4 4 4 5 5 5 5 5 4 4 5 4 4 4 4 4 4 3 3 3 3 2 3 3 2 3 5 11 15 15
Wind_Direction
63 55 57 56 42 36 45 57 66 128 136 140 123 108 89 114 153 196 158 190 196 199 206 219 246 288 319 328 330 332 332 331 330 329 328 326 325 324
68 57 46 37 36 35 38 34 27 54 99 122 109 104 81 59 158 268 246 207 205 201 205 216 230 247 278 303 315 320 322 323 324 325 325 325 325 325
70 68 59 44 29 29 30 40 37 44 69 83 97 126 143 175 204 274 267 224 198 197 205 213 221 228 239 260 280 300 317 324 326 327 327 327 327 325
68 66 62 58 44 33 25 43 48 45 53 63 74 147 177 192 213 256 272 270 189 195 203 211 218 222 226 236 252 276 303 318 323 326 328 329 329 329
71 69 64 57 46 32 32 31 22 39 34 29 16 64 192 154 256 281 293 285 282 184 198 214 222 223 222 227 235 252 280 300 311 320 326 328 329 328
73 69 63 57 41 11 38 29 21 11 3 353 1 26 34 2 359 327 328 333 312 294 202 207 212 216 217 219 223 232 253 274 291 307 317 322 324 324
85 86 83 82 67 35 42 25 16 9 9 10 21 28 26 14 7 340 348 325 313 344 337 289 196 198 204 212 216 223 236 255 274 292 305 314 317 318
84 98 125 121 121 121 46 16 11 19 20 5 18 18 13 13 356 341 351 346 331 333 333 306 257 204 203 194 199 207 222 237 255 277 295 305 309 310
65 49 80 82 51 30 349 254 249 236 235 329 355 352 350 15 356 340 339 328 300 288 301 300 291 253 225 177 186 202 214 226 243 264 285 299 305 307
85 79 77 68 40 13 342 350 354 194 215 221 292 318 343 355 331 311 304 308 299 296 300 289 298 299 264 176 200 208 217 226 241 259 277 293 304 309
78 62 73 79 39 10 357 7 18 12 349 300 283 283 286 281 273 307 317 333 326 316 343 330 308 306 288 211 210 216 225 230 241 253 265 283 302 314
97 93 70 66 41 18 7 12 12 353 337 319 293 273 262 258 233 221 267 310 322 323 338 344 325 334 321 293 242 210 227 238 242 247 252 267 292 312
85 94 84 58 32 7 350 345 336 312 301 292 287 286 277 270 222 217 231 252 295 299 308 348 333 327 317 304 294 261 219 216 214 236 238 244 258 277
53 77 103 314 322 316 314 314 321 318 296 307 329 345 350 338 306 284 260 253 246 248 261 266 264 282 304 308 302 299 290 250 197 205 213 214 232 240
21 352 283 265 288 279 261 283 305 308 326 337 339 339 334 316 302 298 292 276 270 272 263 231 232 257 274 279 287 296 300 295 254 228 206 179 194 209
325 286 263 262 263 281 284 258 254 277 322 316 324 327 322 320 312 306 308 306 298 293 281 260 245 241 251 268 279 300 311 304 308 293 236 204 199 189
334 301 275 289 287 280 315 311 298 357 5 346 337 331 329 331 325 321 312 312 323 319 312 301 275 253 243 237 272 305 318 314 297 294 289 262 224 193
334 311 345 358 351 354 348 349 11 39 10 331 326 332 332 330 322 318 318 322 320 314 313 310 324 338 331 343 216 291 317 322 315 303 303 293 261 210
297 292 5 13 358 356 2 7 7 10 344 321 330 336 334 328 322 321 324 327 325 316 308 308 336 354 340 332 284 231 245 284 304 316 309 287 263 223
254 339 30 24 11 7 7 7 353 344 346 340 334 335 334 324 319 322 323 330 320 311 311 316 319 308 284 280 278 255 215 229 254 280 296 292 280 100
21 21 27 25 20 1 348 347 341 330 341 328 322 333 330 323 324 328 324 323 313 305 314 306 285 272 252 263 274 266 223 216 225 224 258 288 288 246
23 9 2 20 34 350 349 3 358 350 352 350 353 348 334 327 327 324 319 318 316 319 317 305 300 295 279 286 292 292 275 237 232 239 249 239 234 250
51 356 334 26 36 14 17 4 359 6 16 10 357 343 333 326 317 312 312 317 321 325 328 321 318 313 311 307 311 318 328 310 232 216 250 241 237 248